Time,TemperatureF,DewpointF,PressureIn,WindDirection,WindDirectionDegrees,WindSpeedMPH,WindSpeedGustMPH,Humidity,HourlyPrecipIn,Conditions,Clouds,dailyrainin,SoftwareType,DateUTC
2013-02-12 00:01:00,38.0,26.0,-100.00,West,260,17.0,28.0,60,0.00,,,-99.99,,2013-02-12 05:01:00,
2013-02-12 00:11:00,38.0,26.0,-100.00,West,280,16.0,22.0,60,0.00,,,-99.99,,2013-02-12 05:11:00,
2013-02-12 00:21:00,38.0,25.0,-100.00,West,280,16.0,25.0,58,0.00,,,-99.99,,2013-02-12 05:21:00,
2013-02-12 00:32:00,38.0,25.0,-100.00,West,260,18.0,27.0,58,0.00,,,-99.99,,2013-02-12 05:32:00,
2013-02-12 00:42:00,38.0,25.0,-100.00,West,265,10.0,22.0,59,0.00,,,-99.99,,2013-02-12 05:42:00,
2013-02-12 00:52:00,38.0,25.0,-100.00,WSW,250,17.0,24.0,59,0.00,,,-99.99,,2013-02-12 05:52:00,
2013-02-12 01:02:00,38.0,25.0,-100.00,West,265,17.0,29.0,59,0.00,,,-99.99,,2013-02-12 06:02:00,
2013-02-12 01:12:00,38.0,25.0,-100.00,West,275,20.0,27.0,59,0.00,,,-99.99,,2013-02-12 06:12:00,
2013-02-12 01:21:00,38.0,25.0,-100.00,West,265,12.0,25.0,60,0.00,,,-99.99,,2013-02-12 06:21:00,
2013-02-12 01:32:00,38.0,26.0,-100.00,WSW,250,14.0,25.0,61,0.00,,,-99.99,,2013-02-12 06:32:00,
2013-02-12 01:42:00,38.0,26.0,-100.00,West,265,14.0,27.0,60,0.00,,,-99.99,,2013-02-12 06:42:00,
2013-02-12 01:51:00,38.0,26.0,-100.00,West,270,14.0,21.0,62,0.00,,,-99.99,,2013-02-12 06:51:00,
2013-02-12 02:02:00,38.0,26.0,-100.00,West,265,14.0,26.0,62,0.00,,,-99.99,,2013-02-12 07:02:00,
2013-02-12 02:11:00,37.0,26.0,-100.00,West,275,21.0,29.0,62,0.00,,,-99.99,,2013-02-12 07:11:00,
2013-02-12 02:21:00,37.0,26.0,-100.00,West,270,17.0,25.0,62,0.00,,,-99.99,,2013-02-12 07:21:00,
2013-02-12 02:32:00,37.0,25.0,-100.00,West,260,14.0,23.0,62,0.00,,,-99.99,,2013-02-12 07:32:00,
2013-02-12 02:42:00,37.0,25.0,-100.00,West,275,18.0,25.0,62,0.00,,,-99.99,,2013-02-12 07:42:00,
2013-02-12 02:51:00,37.0,26.0,-100.00,West,275,19.0,25.0,63,0.00,,,-99.99,,2013-02-12 07:51:00,
2013-02-12 03:01:00,37.0,26.0,-100.00,West,275,17.0,25.0,65,0.00,,,-99.99,,2013-02-12 08:01:00,
2013-02-12 03:11:00,36.0,26.0,-100.00,WNW,285,11.0,14.0,66,0.00,,,-99.99,,2013-02-12 08:11:00,
2013-02-12 03:21:00,36.0,26.0,-100.00,West,280,10.0,16.0,68,0.00,,,-99.99,,2013-02-12 08:21:00,
2013-02-12 03:32:00,36.0,27.0,-100.00,WNW,290,9.0,16.0,68,0.00,,,-99.99,,2013-02-12 08:32:00,
2013-02-12 03:42:00,36.0,26.0,-100.00,West,270,12.0,16.0,68,0.00,,,-99.99,,2013-02-12 08:42:00,
2013-02-12 03:52:00,35.0,26.0,-100.00,WNW,285,14.0,21.0,68,0.00,,,-99.99,,2013-02-12 08:52:00,
2013-02-12 04:02:00,35.0,26.0,-100.00,West,275,16.0,20.0,69,0.00,,,-99.99,,2013-02-12 09:02:00,
2013-02-12 04:11:00,34.0,25.0,-100.00,West,275,16.0,22.0,70,0.00,,,-99.99,,2013-02-12 09:11:00,
2013-02-12 04:21:00,34.0,25.0,-100.00,West,270,11.0,19.0,70,0.00,,,-99.99,,2013-02-12 09:21:00,
2013-02-12 04:32:00,34.0,25.0,-100.00,West,270,12.0,23.0,70,0.00,,,-99.99,,2013-02-12 09:32:00,
2013-02-12 04:42:00,34.0,25.0,-100.00,West,270,18.0,24.0,69,0.00,,,-99.99,,2013-02-12 09:42:00,
2013-02-12 04:51:00,33.0,24.0,-100.00,West,270,14.0,24.0,69,0.00,,,-99.99,,2013-02-12 09:51:00,
2013-02-12 05:01:00,33.0,24.0,-100.00,West,275,11.0,19.0,69,0.00,,,-99.99,,2013-02-12 10:01:00,
2013-02-12 05:11:00,33.0,24.0,-100.00,West,275,14.0,19.0,69,0.00,,,-99.99,,2013-02-12 10:11:00,
2013-02-12 05:21:00,33.0,24.0,-100.00,WNW,285,9.0,19.0,71,0.00,,,-99.99,,2013-02-12 10:21:00,
2013-02-12 05:32:00,33.0,25.0,-100.00,West,280,12.0,19.0,71,0.00,,,-99.99,,2013-02-12 10:32:00,
2013-02-12 05:43:00,33.0,25.0,-100.00,West,265,9.0,18.0,71,0.00,,,-99.99,,2013-02-12 10:43:00,
2013-02-12 05:51:00,33.0,25.0,-100.00,West,275,12.0,17.0,71,0.00,,,-99.99,,2013-02-12 10:51:00,
2013-02-12 06:01:00,33.0,25.0,-100.00,West,270,9.0,12.0,72,0.00,,,-99.99,,2013-02-12 11:01:00,
2013-02-12 06:11:00,33.0,25.0,-100.00,West,270,7.0,19.0,72,0.00,,,-99.99,,2013-02-12 11:11:00,
2013-02-12 06:22:00,33.0,25.0,-100.00,West,275,7.0,11.0,72,0.00,,,-99.99,,2013-02-12 11:22:00,
2013-02-12 06:32:00,33.0,25.0,-100.00,West,270,9.0,13.0,72,0.00,,,-99.99,,2013-02-12 11:32:00,
2013-02-12 06:42:00,33.0,25.0,-100.00,West,280,10.0,15.0,72,0.00,,,-99.99,,2013-02-12 11:42:00,
2013-02-12 06:52:00,33.0,25.0,-100.00,West,275,8.0,16.0,72,0.00,,,-99.99,,2013-02-12 11:52:00,
2013-02-12 07:02:00,33.0,25.0,-100.00,West,270,11.0,16.0,71,0.00,,,-99.99,,2013-02-12 12:02:00,
2013-02-12 07:11:00,33.0,24.0,-100.00,West,280,11.0,15.0,72,0.00,,,-99.99,,2013-02-12 12:11:00,
2013-02-12 07:21:00,32.0,25.0,-100.00,WNW,295,8.0,14.0,72,0.00,,,-99.99,,2013-02-12 12:21:00,
2013-02-12 07:32:00,32.0,24.0,-100.00,West,270,11.0,17.0,70,0.00,,,-99.99,,2013-02-12 12:32:00,
2013-02-12 07:42:00,32.0,23.0,-100.00,West,280,11.0,17.0,70,0.00,,,-99.99,,2013-02-12 12:42:00,
2013-02-12 07:52:00,32.0,24.0,-100.00,West,265,11.0,19.0,71,0.00,,,-99.99,,2013-02-12 12:52:00,
2013-02-12 08:02:00,32.0,23.0,-100.00,West,270,12.0,19.0,70,0.00,,,-99.99,,2013-02-12 13:02:00,
2013-02-12 08:11:00,32.0,24.0,-100.00,West,270,9.0,16.0,71,0.00,,,-99.99,,2013-02-12 13:11:00,
2013-02-12 08:22:00,32.0,23.0,-100.00,WNW,290,10.0,18.0,70,0.00,,,-99.99,,2013-02-12 13:22:00,
2013-02-12 08:32:00,32.0,24.0,-100.00,WNW,285,9.0,19.0,72,0.00,,,-99.99,,2013-02-12 13:32:00,
2013-02-12 08:42:00,32.0,24.0,-100.00,West,265,7.0,14.0,72,0.00,,,-99.99,,2013-02-12 13:42:00,
2013-02-12 08:52:00,32.0,24.0,-100.00,WSW,245,6.0,11.0,72,0.00,,,-99.99,,2013-02-12 13:52:00,
2013-02-12 09:01:00,32.0,24.0,-100.00,WNW,290,7.0,11.0,72,0.00,,,-99.99,,2013-02-12 14:01:00,
2013-02-12 09:12:00,32.0,24.0,-100.00,West,275,9.0,12.0,72,0.00,,,-99.99,,2013-02-12 14:12:00,
2013-02-12 09:21:00,32.0,24.0,-100.00,West,265,7.0,14.0,71,0.00,,,-99.99,,2013-02-12 14:21:00,
2013-02-12 09:32:00,32.0,24.0,-100.00,West,265,9.0,14.0,70,0.00,,,-99.99,,2013-02-12 14:32:00,
2013-02-12 09:42:00,32.0,23.0,-100.00,West,280,10.0,14.0,70,0.00,,,-99.99,,2013-02-12 14:42:00,
2013-02-12 09:52:00,33.0,24.0,-100.00,West,280,9.0,14.0,70,0.00,,,-99.99,,2013-02-12 14:52:00,
2013-02-12 10:02:00,32.0,23.0,-100.00,West,270,9.0,12.0,69,0.00,,,-99.99,,2013-02-12 15:02:00,
2013-02-12 10:11:00,34.0,25.0,-100.00,West,260,7.0,12.0,69,0.00,,,-99.99,,2013-02-12 15:11:00,
2013-02-12 10:21:00,34.0,24.0,-100.00,West,260,8.0,13.0,67,0.00,,,-99.99,,2013-02-12 15:21:00,
2013-02-12 10:32:00,34.0,24.0,-100.00,West,260,6.0,10.0,68,0.00,,,-99.99,,2013-02-12 15:32:00,
2013-02-12 10:42:00,34.0,25.0,-100.00,SW,235,8.0,12.0,68,0.00,,,-99.99,,2013-02-12 15:42:00,
2013-02-12 10:52:00,34.0,25.0,-100.00,WSW,245,8.0,11.0,68,0.00,,,-99.99,,2013-02-12 15:52:00,
2013-02-12 11:01:00,34.0,24.0,-100.00,SW,220,6.0,11.0,65,0.00,,,-99.99,,2013-02-12 16:01:00,
2013-02-12 11:11:00,35.0,25.0,-100.00,WSW,240,7.0,12.0,66,0.00,,,-99.99,,2013-02-12 16:11:00,
2013-02-12 11:22:00,34.0,25.0,-100.00,SW,235,7.0,11.0,67,0.00,,,-99.99,,2013-02-12 16:22:00,
2013-02-12 11:32:00,34.0,25.0,-100.00,WNW,290,4.0,12.0,68,0.00,,,-99.99,,2013-02-12 16:32:00,
2013-02-12 11:42:00,36.0,26.0,-100.00,West,275,6.0,9.0,66,0.00,,,-99.99,,2013-02-12 16:42:00,
2013-02-12 11:51:00,36.0,26.0,-100.00,West,280,6.0,12.0,65,0.00,,,-99.99,,2013-02-12 16:51:00,
2013-02-12 12:01:00,36.0,25.0,-100.00,SW,220,6.0,10.0,63,0.00,,,-99.99,,2013-02-12 17:01:00,
2013-02-12 12:12:00,36.0,24.0,-100.00,SSW,205,5.0,10.0,61,0.00,,,-99.99,,2013-02-12 17:12:00,
2013-02-12 12:21:00,37.0,26.0,-100.00,WSW,255,7.0,11.0,63,0.00,,,-99.99,,2013-02-12 17:21:00,
2013-02-12 12:32:00,37.0,25.0,-100.00,SSW,205,9.0,14.0,62,0.00,,,-99.99,,2013-02-12 17:32:00,
2013-02-12 12:42:00,38.0,26.0,-100.00,West,270,10.0,17.0,62,0.00,,,-99.99,,2013-02-12 17:42:00,
2013-02-12 12:52:00,37.0,26.0,-100.00,WSW,240,9.0,16.0,62,0.00,,,-99.99,,2013-02-12 17:52:00,
2013-02-12 13:02:00,38.0,26.0,-100.00,WSW,240,10.0,14.0,61,0.00,,,-99.99,,2013-02-12 18:02:00,
2013-02-12 13:11:00,39.0,28.0,-100.00,SW,235,10.0,16.0,62,0.00,,,-99.99,,2013-02-12 18:11:00,
2013-02-12 13:23:00,39.0,27.0,-100.00,SW,235,9.0,16.0,63,0.00,,,-99.99,,2013-02-12 18:23:00,
2013-02-12 13:32:00,40.0,28.0,-100.00,WSW,250,7.0,12.0,62,0.00,,,-99.99,,2013-02-12 18:32:00,
2013-02-12 13:41:00,40.0,26.0,-100.00,NW,310,6.0,11.0,58,0.00,,,-99.99,,2013-02-12 18:41:00,
2013-02-12 13:51:00,40.0,27.0,-100.00,WSW,250,9.0,11.0,58,0.00,,,-99.99,,2013-02-12 18:51:00,
2013-02-12 14:02:00,40.0,26.0,-100.00,SW,225,6.0,9.0,57,0.00,,,-99.99,,2013-02-12 19:02:00,
2013-02-12 14:11:00,40.0,27.0,-100.00,WSW,250,10.0,13.0,59,0.00,,,-99.99,,2013-02-12 19:11:00,
2013-02-12 14:21:00,40.0,26.0,-100.00,West,275,7.0,13.0,56,0.00,,,-99.99,,2013-02-12 19:21:00,
2013-02-12 14:32:00,41.0,27.0,-100.00,WSW,250,7.0,12.0,56,0.00,,,-99.99,,2013-02-12 19:32:00,
2013-02-12 14:41:00,42.0,27.0,-100.00,SW,230,11.0,16.0,56,0.00,,,-99.99,,2013-02-12 19:41:00,
2013-02-12 14:51:00,42.0,28.0,-100.00,West,270,7.0,17.0,55,0.00,,,-99.99,,2013-02-12 19:51:00,
2013-02-12 15:01:00,42.0,28.0,-100.00,West,260,12.0,16.0,56,0.00,,,-99.99,,2013-02-12 20:01:00,
2013-02-12 15:11:00,42.0,27.0,-100.00,WSW,250,13.0,17.0,54,0.00,,,-99.99,,2013-02-12 20:11:00,
2013-02-12 15:21:00,42.0,27.0,-100.00,SW,230,11.0,16.0,54,0.00,,,-99.99,,2013-02-12 20:21:00,
2013-02-12 15:32:00,42.0,26.0,-100.00,SSW,210,11.0,16.0,52,0.00,,,-99.99,,2013-02-12 20:32:00,
2013-02-12 15:41:00,43.0,27.0,-100.00,SW,225,12.0,15.0,51,0.00,,,-99.99,,2013-02-12 20:41:00,
2013-02-12 15:52:00,43.0,27.0,-100.00,WSW,245,14.0,19.0,52,0.00,,,-99.99,,2013-02-12 20:52:00,
2013-02-12 16:02:00,44.0,27.0,-100.00,WSW,255,10.0,15.0,51,0.00,,,-99.99,,2013-02-12 21:02:00,
2013-02-12 16:11:00,44.0,27.0,-100.00,WSW,255,12.0,16.0,51,0.00,,,-99.99,,2013-02-12 21:11:00,
2013-02-12 16:21:00,44.0,28.0,-100.00,SW,215,9.0,16.0,52,0.00,,,-99.99,,2013-02-12 21:21:00,
2013-02-12 16:32:00,44.0,28.0,-100.00,SW,215,9.0,16.0,52,0.00,,,-99.99,,2013-02-12 21:32:00,
2013-02-12 16:42:00,44.0,28.0,-100.00,SW,235,7.0,12.0,52,0.00,,,-99.99,,2013-02-12 21:42:00,
2013-02-12 16:51:00,44.0,27.0,-100.00,WSW,240,9.0,13.0,50,0.00,,,-99.99,,2013-02-12 21:51:00,
2013-02-12 17:01:00,45.0,27.0,-100.00,SSW,210,9.0,14.0,50,0.00,,,-99.99,,2013-02-12 22:01:00,
2013-02-12 17:12:00,44.0,26.0,-100.00,SW,235,11.0,16.0,49,0.00,,,-99.99,,2013-02-12 22:12:00,
2013-02-12 17:21:00,44.0,27.0,-100.00,WSW,240,10.0,14.0,50,0.00,,,-99.99,,2013-02-12 22:21:00,
2013-02-12 17:32:00,44.0,27.0,-100.00,SW,220,7.0,12.0,51,0.00,,,-99.99,,2013-02-12 22:32:00,
2013-02-12 17:42:00,44.0,28.0,-100.00,WSW,240,7.0,10.0,51,0.00,,,-99.99,,2013-02-12 22:42:00,
2013-02-12 17:51:00,44.0,28.0,-100.00,SW,235,6.0,12.0,52,0.00,,,-99.99,,2013-02-12 22:51:00,
2013-02-12 18:01:00,44.0,27.0,-100.00,SW,225,7.0,11.0,51,0.00,,,-99.99,,2013-02-12 23:01:00,
2013-02-12 18:11:00,43.0,27.0,-100.00,SW,220,4.0,7.0,52,0.00,,,-99.99,,2013-02-12 23:11:00,
2013-02-12 18:21:00,42.0,26.0,-100.00,SW,235,4.0,7.0,52,0.00,,,-99.99,,2013-02-12 23:21:00,
2013-02-12 18:32:00,42.0,26.0,-100.00,SW,225,4.0,6.0,52,0.00,,,-99.99,,2013-02-12 23:32:00,
2013-02-12 18:42:00,42.0,26.0,-100.00,SW,230,4.0,6.0,54,0.00,,,-99.99,,2013-02-12 23:42:00,
2013-02-12 18:52:00,42.0,26.0,-100.00,SW,225,3.0,6.0,53,0.00,,,-99.99,,2013-02-12 23:52:00,
2013-02-12 19:02:00,41.0,26.0,-100.00,SSW,210,4.0,4.0,54,0.00,,,-99.99,,2013-02-13 00:02:00,
2013-02-12 19:11:00,41.0,26.0,-100.00,South,185,1.0,4.0,56,0.00,,,-99.99,,2013-02-13 00:11:00,
2013-02-12 19:21:00,40.0,27.0,-100.00,South,175,1.0,3.0,60,0.00,,,-99.99,,2013-02-13 00:21:00,
2013-02-12 19:32:00,40.0,27.0,-100.00,South,180,1.0,2.0,59,0.00,,,-99.99,,2013-02-13 00:32:00,
2013-02-12 19:42:00,40.0,27.0,-100.00,South,185,1.0,3.0,59,0.00,,,-99.99,,2013-02-13 00:42:00,
2013-02-12 19:52:00,40.0,27.0,-100.00,South,190,0.0,2.0,59,0.00,,,-99.99,,2013-02-13 00:52:00,
2013-02-12 20:01:00,40.0,26.0,-100.00,NNW,345,0.0,1.0,59,0.00,,,-99.99,,2013-02-13 01:01:00,
2013-02-12 20:11:00,39.0,27.0,-100.00,SE,135,1.0,1.0,61,0.00,,,-99.99,,2013-02-13 01:11:00,
2013-02-12 20:21:00,38.0,27.0,-100.00,NW,315,0.0,3.0,65,0.00,,,-99.99,,2013-02-13 01:21:00,
2013-02-12 20:31:00,38.0,27.0,-100.00,North,10,0.0,1.0,64,0.00,,,-99.99,,2013-02-13 01:31:00,
2013-02-12 20:42:00,37.0,26.0,-100.00,WNW,300,0.0,2.0,63,0.00,,,-99.99,,2013-02-13 01:42:00,
2013-02-12 20:51:00,37.0,26.0,-100.00,SW,230,0.0,1.0,65,0.00,,,-99.99,,2013-02-13 01:51:00,
2013-02-12 21:01:00,37.0,26.0,-100.00,South,180,0.0,0.0,66,0.00,,,-99.99,,2013-02-13 02:01:00,
2013-02-12 21:11:00,36.0,26.0,-100.00,NE,40,0.0,0.0,67,0.00,,,-99.99,,2013-02-13 02:11:00,
2013-02-12 21:22:00,35.0,27.0,-100.00,SE,135,0.0,2.0,72,0.00,,,-99.99,,2013-02-13 02:22:00,
2013-02-12 21:32:00,34.0,27.0,-100.00,South,180,0.0,1.0,73,0.00,,,-99.99,,2013-02-13 02:32:00,
2013-02-12 21:42:00,34.0,27.0,-100.00,South,180,0.0,0.0,75,0.00,,,-99.99,,2013-02-13 02:42:00,
2013-02-12 21:52:00,34.0,27.0,-100.00,SE,145,0.0,1.0,74,0.00,,,-99.99,,2013-02-13 02:52:00,
2013-02-12 22:01:00,34.0,27.0,-100.00,NNE,15,0.0,1.0,75,0.00,,,-99.99,,2013-02-13 03:01:00,
2013-02-12 22:11:00,34.0,27.0,-100.00,NNE,25,0.0,1.0,75,0.00,,,-99.99,,2013-02-13 03:11:00,
2013-02-12 22:21:00,34.0,27.0,-100.00,South,175,1.0,1.0,76,0.00,,,-99.99,,2013-02-13 03:21:00,
2013-02-12 22:32:00,33.0,27.0,-100.00,NW,315,0.0,1.0,78,0.00,,,-99.99,,2013-02-13 03:32:00,
2013-02-12 22:42:00,33.0,27.0,-100.00,WNW,300,0.0,1.0,78,0.00,,,-99.99,,2013-02-13 03:42:00,
2013-02-12 22:51:00,33.0,27.0,-100.00,SSE,165,1.0,1.0,78,0.00,,,-99.99,,2013-02-13 03:51:00,
2013-02-12 23:01:00,32.0,26.0,-100.00,NW,305,1.0,2.0,78,0.00,,,-99.99,,2013-02-13 04:01:00,
2013-02-12 23:11:00,31.0,27.0,-100.00,WNW,300,0.0,2.0,82,0.00,,,-99.99,,2013-02-13 04:11:00,
2013-02-12 23:21:00,31.0,27.0,-100.00,NW,305,0.0,2.0,83,0.00,,,-99.99,,2013-02-13 04:21:00,
2013-02-12 23:32:00,31.0,27.0,-100.00,SE,140,0.0,1.0,83,0.00,,,-99.99,,2013-02-13 04:32:00,
2013-02-12 23:41:00,31.0,27.0,-100.00,North,0,0.0,1.0,83,0.00,,,-99.99,,2013-02-13 04:41:00,
2013-02-12 23:51:00,31.0,27.0,-100.00,SE,125,0.0,2.0,83,0.00,,,-99.99,,2013-02-13 04:51:00,